Location: Cz?stochówka
(50.8142°N, 19.0915°E)
Time: 09:11:04
(UTC+00:00)

CZ-4C R/B - Pass Details

Date: 13 January 2026
Orbit: 482 x 1496 km, 63.4° (Epoch: 18 February)

Event Time Altitude Azimuth Distance (km) Brightness Sun altitude
Exits shadow 05:20:09 11° 320° (NW) 2,459 4.1 -12.3°
Maximum altitude 05:25:15 33° 22° (NNE) 1,701 3.8 -11.5°
Drops below altitude 10° 05:31:59 10° 83° (E) 3,203 6.3 -10.5°
Sets 05:35:29 0° 93° (E) 4,319 7.4 -10.0°
